Погода в Завьялихе

Россия / Челябинская область     54°46′54″N   58°31′55″E
темп.,
°C
ветер,
м/с
пор.,
м/с
влажн.,
%
обл.,
%
осадки,
мм/ч
давл.,
гПа
погр.,
м
28 января, чт
чт2823:00−7ю228737 0.0 103027
02:00−7ююв2287100 0.0 103027
05:00−7ю238698 0.0 102938
08:00−6ююв2284100 0.0 102834
11:00−4ююв2382100 0.0 1028112
14:000ююз2780100 0.0 1026398
17:00−2ю2280100 0.0 102626
20:00−6ююв2281100 0.0 102625
29 января, пт
пт2923:00−6ююв2278100 0.0 102623
02:00−6ююв2275100 0.0 102622
05:00−6ююв2272100 0.0 102521
08:00−6ююв2269100 0.0 102321
11:00−3юв2274100 0.0 102336
14:00+1юв2281100 0.0 102171
17:00−1юв2276100 0.0 102022
20:00−6юв3369100 0.0 102026
30 января, сб
сб3023:00−6юв3375100 0.0 101946
02:00−6юв3280100 0.0 101859
05:00−8юв2282100 0.0 101748
08:00−8ююв3386100 0.0 101575
11:00−7ююв2392100 0.2 1014148
14:00−5ююв1292100 0.3 1013248
17:00−6ююв129387 0.3 101422
20:00−8ююз229280 0.0 101528
31 января, вс
вс3123:00−8ю239273 0.0 101535
02:00−8ю239283 0.0 101638
05:00−7ю229491 0.0 101637
08:00−7ю2293100 0.0 101730
11:00−5ююз2791100 0.0 1018334
14:00−2юз2687100 0.0 1019608
17:00−3ю1292100 0.0 102021
20:00−5ююв2293100 0.0 102121
1 февраля, пн
пн123:00−7ююв229297 0.0 102022
02:00−7юв229072 0.0 101928
05:00−8ююв339172 0.0 101839
08:00−9ююв229133 0.0 101735
11:00−5ю278467 0.0 1017379
14:000юз41284100 0.1 10161101
17:00−2юз31090100 0.4 10181006
20:00−5зюз31192100 0.1 1020717